Location: Unspecified
(40.7945°N, 0.0000°E)
Time: 02:26:41
(UTC+00:00)

Altair - Pass Details

Date: 21 January 2021
Orbit: 1501 x 1682 km, 47.2° (Epoch: 01 March)

Event Time Altitude Azimuth Distance (km) Brightness Sun altitude
Rises 10:23:38 0° 292° (WNW) 4,938 9.7 24.4°
Reaches altitude 10° 10:26:51 10° 294° (WNW) 3,949 9.3 24.7°
Maximum altitude 10:37:03 74° 20° (NNE) 1,725 8.1 25.6°
Drops below altitude 10° 10:47:00 10° 105° (ESE) 3,859 10.2 26.3°
Sets 10:50:06 0° 107° (ESE) 4,821 10.6 26.5°
